Location: Newark
(40.3500°N, 15.2333°E)
Time: 08:20:10
(UTC+00:00)

S-56A Canister/Altair - Visible Passes

Search period start: 28 January 2020 00:00
Search period end: 07 February 2020 00:00
Orbit: 634 x 2498 km, 38.9° (Epoch: 27 January)

Date Brightness Start Highest point End Pass type
(mag) Time Alt. Az. Time Alt. Az. Time Alt. Az.
28 Jan 9.3 17:00:42 10° SW 17:08:47 35° SSE 17:13:43 14° E visible
28 Jan 8.6 19:05:32 10° WSW 19:11:09 49° SW 19:11:09 49° SW visible
29 Jan 7.9 18:32:14 10° WSW 18:40:06 66° SSE 18:40:21 65° SSE visible
30 Jan 8.3 17:58:51 10° WSW 18:07:23 64° SSE 18:09:33 41° ESE visible
30 Jan 10.1 20:04:44 10° W 20:06:58 21° W 20:06:58 21° W visible
31 Jan 8.6 17:25:24 10° WSW 17:34:37 61° SSE 17:38:43 23° E visible
31 Jan 9.1 19:31:29 10° W 19:36:09 38° W 19:36:09 38° W visible
01 Feb 8.9 16:51:55 10° WSW 17:01:46 58° SSE 17:07:52 12° E visible
01 Feb 8.1 18:58:08 10° W 19:05:19 70° WSW 19:05:19 70° WSW visible
02 Feb 7.9 18:24:41 10° W 18:33:19 80° S 18:34:28 62° ESE visible
02 Feb 10.5 20:30:47 10° W 20:31:54 15° W 20:31:54 15° W visible
03 Feb 8.3 17:51:09 10° W 18:00:31 79° S 18:03:38 34° E visible
03 Feb 9.7 19:57:33 10° W 20:01:04 28° W 20:01:04 28° W visible
04 Feb 8.6 17:17:32 10° WSW 17:27:41 78° S 17:32:47 19° E visible
04 Feb 8.8 19:24:11 10° W 19:30:13 49° WSW 19:30:13 49° WSW visible
05 Feb 8.9 16:43:52 10° WSW 16:54:46 77° S 17:01:46 10° E visible
05 Feb 8.0 18:50:45 10° W 18:59:14 73° SSW 18:59:23 73° S visible
06 Feb 8.3 18:17:13 10° W 18:26:28 77° S 18:28:34 47° ESE visible
06 Feb 10.3 20:23:45 10° W 20:25:59 18° W 20:25:59 18° W visible
